Year,Month,Day,Hour,Minute,Value (Times are PST for windgust in km/hr)
2011,07,09,00,02,0.00
2011,07,09,00,04,0.00
2011,07,09,00,05,0.00
2011,07,09,00,06,0.00
2011,07,09,00,07,0.00
2011,07,09,00,09,0.00
2011,07,09,00,10,0.00
2011,07,09,00,11,0.00
2011,07,09,00,14,0.00
2011,07,09,00,15,0.00
2011,07,09,00,16,0.00
2011,07,09,00,17,0.00
2011,07,09,00,18,0.00
2011,07,09,00,20,0.00
2011,07,09,00,21,0.00
2011,07,09,00,22,0.00
2011,07,09,00,23,3.20
2011,07,09,00,24,3.20
2011,07,09,00,26,3.20
2011,07,09,00,27,3.20
2011,07,09,00,28,4.80
2011,07,09,00,29,4.80
2011,07,09,00,31,0.00
2011,07,09,00,32,3.20
2011,07,09,00,33,4.80
2011,07,09,00,34,4.80
2011,07,09,00,35,4.80
2011,07,09,00,36,4.80
2011,07,09,00,37,4.80
2011,07,09,00,38,4.80
2011,07,09,00,40,4.80
2011,07,09,00,41,6.40
2011,07,09,00,42,6.40
2011,07,09,00,43,6.40
2011,07,09,00,44,6.40
2011,07,09,00,45,6.40
2011,07,09,00,46,6.40
2011,07,09,00,47,9.70
2011,07,09,00,48,11.30
2011,07,09,00,49,11.30
2011,07,09,00,50,11.30
2011,07,09,00,51,11.30
2011,07,09,00,52,11.30
2011,07,09,00,53,11.30
2011,07,09,00,54,11.30
2011,07,09,00,55,11.30
2011,07,09,00,56,11.30
2011,07,09,00,57,11.30
2011,07,09,00,58,11.30
2011,07,09,00,59,11.30
2011,07,09,01,00,3.20
2011,07,09,01,01,3.20
2011,07,09,01,02,3.20
2011,07,09,01,04,3.20
2011,07,09,01,05,3.20
2011,07,09,01,06,3.20
2011,07,09,01,07,3.20
2011,07,09,01,08,3.20
2011,07,09,01,09,3.20
2011,07,09,01,10,3.20
2011,07,09,01,11,3.20
2011,07,09,01,12,3.20
2011,07,09,01,14,3.20
2011,07,09,01,15,3.20
2011,07,09,01,16,3.20
2011,07,09,01,17,3.20
2011,07,09,01,18,3.20
2011,07,09,01,19,3.20
2011,07,09,01,20,3.20
2011,07,09,01,21,3.20
2011,07,09,01,22,3.20
2011,07,09,01,24,3.20
2011,07,09,01,25,3.20
2011,07,09,01,26,3.20
2011,07,09,01,27,3.20
2011,07,09,01,28,3.20
2011,07,09,01,29,3.20
2011,07,09,01,30,0.00
2011,07,09,01,31,0.00
2011,07,09,01,33,0.00
2011,07,09,01,34,1.60
2011,07,09,01,35,1.60
2011,07,09,01,36,1.60
2011,07,09,01,38,1.60
2011,07,09,01,39,1.60
2011,07,09,01,40,1.60
2011,07,09,01,41,1.60
2011,07,09,01,42,1.60
2011,07,09,01,43,1.60
2011,07,09,01,44,1.60
2011,07,09,01,45,1.60
2011,07,09,01,46,1.60
2011,07,09,01,47,3.20
2011,07,09,01,49,3.20
2011,07,09,01,50,3.20
2011,07,09,01,51,4.80
2011,07,09,01,52,4.80
2011,07,09,01,54,4.80
2011,07,09,01,55,4.80
2011,07,09,01,56,4.80
2011,07,09,01,57,4.80
2011,07,09,01,58,4.80
2011,07,09,02,00,4.80
2011,07,09,02,01,0.00
2011,07,09,02,02,0.00
2011,07,09,02,03,1.60
2011,07,09,02,04,3.20
2011,07,09,02,06,3.20
2011,07,09,02,07,3.20
2011,07,09,02,08,3.20
2011,07,09,02,09,3.20
2011,07,09,02,11,3.20
2011,07,09,02,12,3.20
2011,07,09,02,13,3.20
2011,07,09,02,14,3.20
2011,07,09,02,15,3.20
2011,07,09,02,16,3.20
2011,07,09,02,17,3.20
2011,07,09,02,18,3.20
2011,07,09,02,19,3.20
2011,07,09,02,20,3.20
2011,07,09,02,21,3.20
2011,07,09,02,23,3.20
2011,07,09,02,24,3.20
2011,07,09,02,25,3.20
2011,07,09,02,26,3.20
2011,07,09,02,27,3.20
2011,07,09,02,29,3.20
2011,07,09,02,30,0.00
2011,07,09,02,31,0.00
2011,07,09,02,32,1.60
2011,07,09,02,33,1.60
2011,07,09,02,34,1.60
2011,07,09,02,35,1.60
2011,07,09,02,36,1.60
2011,07,09,02,37,1.60
2011,07,09,02,38,1.60
2011,07,09,02,39,1.60
2011,07,09,02,40,1.60
2011,07,09,02,41,1.60
2011,07,09,02,42,1.60
2011,07,09,02,43,1.60
2011,07,09,02,44,1.60
2011,07,09,02,45,1.60
2011,07,09,02,46,1.60
2011,07,09,02,47,1.60
2011,07,09,02,48,1.60
2011,07,09,02,49,1.60
2011,07,09,02,50,1.60
2011,07,09,02,51,1.60
2011,07,09,02,52,1.60
2011,07,09,02,53,1.60
2011,07,09,02,54,1.60
2011,07,09,02,55,1.60
2011,07,09,02,56,1.60
2011,07,09,02,57,1.60
2011,07,09,02,59,1.60
2011,07,09,03,00,0.00
2011,07,09,03,01,0.00
2011,07,09,03,02,0.00
2011,07,09,03,04,0.00
2011,07,09,03,05,0.00
2011,07,09,03,06,0.00
2011,07,09,03,07,0.00
2011,07,09,03,08,0.00
2011,07,09,03,09,0.00
2011,07,09,03,10,0.00
2011,07,09,03,11,0.00
2011,07,09,03,12,0.00
2011,07,09,03,13,1.60
2011,07,09,03,14,1.60
2011,07,09,03,15,1.60
2011,07,09,03,16,1.60
2011,07,09,03,17,1.60
2011,07,09,03,18,1.60
2011,07,09,03,19,1.60
2011,07,09,03,20,1.60
2011,07,09,03,21,1.60
2011,07,09,03,22,1.60
2011,07,09,03,24,1.60
2011,07,09,03,25,1.60
2011,07,09,03,26,1.60
2011,07,09,03,27,1.60
2011,07,09,03,28,1.60
2011,07,09,03,29,1.60
2011,07,09,03,30,0.00
2011,07,09,03,31,0.00
2011,07,09,03,32,0.00
2011,07,09,03,34,0.00
2011,07,09,03,35,0.00
2011,07,09,03,36,0.00
2011,07,09,03,37,0.00
2011,07,09,03,39,0.00
2011,07,09,03,40,0.00
2011,07,09,03,41,0.00
2011,07,09,03,42,0.00
2011,07,09,03,44,0.00
2011,07,09,03,45,0.00
2011,07,09,03,46,0.00
2011,07,09,03,47,0.00
2011,07,09,03,48,0.00
2011,07,09,03,49,0.00
2011,07,09,03,50,0.00
2011,07,09,03,51,0.00
2011,07,09,03,52,0.00
2011,07,09,03,53,0.00
2011,07,09,03,54,0.00
2011,07,09,03,55,0.00
2011,07,09,03,56,0.00
2011,07,09,03,58,0.00
2011,07,09,03,59,0.00
2011,07,09,04,00,0.00
2011,07,09,04,01,0.00
2011,07,09,04,02,0.00
2011,07,09,04,04,0.00
2011,07,09,04,05,0.00
2011,07,09,04,06,0.00
2011,07,09,04,07,0.00
2011,07,09,04,08,0.00
2011,07,09,04,09,0.00
2011,07,09,04,10,0.00
2011,07,09,04,11,1.60
2011,07,09,04,12,1.60
2011,07,09,04,13,1.60
2011,07,09,04,14,1.60
2011,07,09,04,15,1.60
2011,07,09,04,16,1.60
2011,07,09,04,18,1.60
2011,07,09,04,19,1.60
2011,07,09,04,20,1.60
2011,07,09,04,21,1.60
2011,07,09,04,22,1.60
2011,07,09,04,23,1.60
2011,07,09,04,24,1.60
2011,07,09,04,26,1.60
2011,07,09,04,27,1.60
2011,07,09,04,28,1.60
2011,07,09,04,29,1.60
2011,07,09,04,30,0.00
2011,07,09,04,32,0.00
2011,07,09,04,33,0.00
2011,07,09,04,34,0.00
2011,07,09,04,35,0.00
2011,07,09,04,37,0.00
2011,07,09,04,38,0.00
2011,07,09,04,39,0.00
2011,07,09,04,40,0.00
2011,07,09,04,42,0.00
2011,07,09,04,43,0.00
2011,07,09,04,44,0.00
2011,07,09,04,45,0.00
2011,07,09,04,46,0.00
2011,07,09,04,47,1.60
2011,07,09,04,48,1.60
2011,07,09,04,49,1.60
2011,07,09,04,50,1.60
2011,07,09,04,51,1.60
2011,07,09,04,52,1.60
2011,07,09,04,53,1.60
2011,07,09,04,54,1.60
2011,07,09,04,55,1.60
2011,07,09,04,57,1.60
2011,07,09,04,58,1.60
2011,07,09,04,59,1.60
2011,07,09,05,00,0.00
2011,07,09,05,01,0.00
2011,07,09,05,03,0.00
2011,07,09,05,04,3.20
2011,07,09,05,05,3.20
2011,07,09,05,07,3.20
2011,07,09,05,08,3.20
2011,07,09,05,09,3.20
2011,07,09,05,10,3.20
2011,07,09,05,11,3.20
2011,07,09,05,12,3.20
2011,07,09,05,13,3.20
2011,07,09,05,14,3.20
2011,07,09,05,15,3.20
2011,07,09,05,16,3.20
2011,07,09,05,18,3.20
2011,07,09,05,19,3.20
2011,07,09,05,20,3.20
2011,07,09,05,21,3.20
2011,07,09,05,22,3.20
2011,07,09,05,23,3.20
2011,07,09,05,24,3.20
2011,07,09,05,25,3.20
2011,07,09,05,26,3.20
2011,07,09,05,28,3.20
2011,07,09,05,29,3.20
2011,07,09,05,30,0.00
2011,07,09,05,31,0.00
2011,07,09,05,33,0.00
2011,07,09,05,34,0.00
2011,07,09,05,35,1.60
2011,07,09,05,36,1.60
2011,07,09,05,38,1.60
2011,07,09,05,39,1.60
2011,07,09,05,40,1.60
2011,07,09,05,41,1.60
2011,07,09,05,43,1.60
2011,07,09,05,44,1.60
2011,07,09,05,45,1.60
2011,07,09,05,46,1.60
2011,07,09,05,48,1.60
2011,07,09,05,49,1.60
2011,07,09,05,50,1.60
2011,07,09,05,52,1.60
2011,07,09,05,53,1.60
2011,07,09,05,54,1.60
2011,07,09,05,55,1.60
2011,07,09,05,57,1.60
2011,07,09,05,58,1.60
2011,07,09,05,59,1.60
2011,07,09,06,00,0.00
2011,07,09,06,02,0.00
2011,07,09,06,03,0.00
2011,07,09,06,04,0.00
2011,07,09,06,05,0.00
2011,07,09,06,07,0.00
2011,07,09,06,08,0.00
2011,07,09,06,09,0.00
2011,07,09,06,10,0.00
2011,07,09,06,11,0.00
2011,07,09,06,13,0.00
2011,07,09,06,14,0.00
2011,07,09,06,15,0.00
2011,07,09,06,16,0.00
2011,07,09,06,18,0.00
2011,07,09,06,19,0.00
2011,07,09,06,20,0.00
2011,07,09,06,21,0.00
2011,07,09,06,22,0.00
2011,07,09,06,23,0.00
2011,07,09,06,24,0.00
2011,07,09,06,25,3.20
2011,07,09,06,27,3.20
2011,07,09,06,28,3.20
2011,07,09,06,29,3.20
2011,07,09,06,30,0.00
2011,07,09,06,32,0.00
2011,07,09,06,33,0.00
2011,07,09,06,34,0.00
2011,07,09,06,35,0.00
2011,07,09,06,36,0.00
2011,07,09,06,38,0.00
2011,07,09,06,39,0.00
2011,07,09,06,40,0.00
2011,07,09,06,41,0.00
2011,07,09,06,43,0.00
2011,07,09,06,44,0.00
2011,07,09,06,45,0.00
2011,07,09,06,46,0.00
2011,07,09,06,47,0.00
2011,07,09,06,49,0.00
2011,07,09,06,50,0.00
2011,07,09,06,51,0.00
2011,07,09,06,52,1.60
2011,07,09,06,54,1.60
2011,07,09,06,55,1.60
2011,07,09,06,56,1.60
2011,07,09,06,57,1.60
2011,07,09,06,59,1.60
2011,07,09,07,00,0.00
2011,07,09,07,01,0.00
2011,07,09,07,02,0.00
2011,07,09,07,03,0.00
2011,07,09,07,04,0.00
2011,07,09,07,05,0.00
2011,07,09,07,06,0.00
2011,07,09,07,08,0.00
2011,07,09,07,09,0.00
2011,07,09,07,10,0.00
2011,07,09,07,11,0.00
2011,07,09,07,13,0.00
2011,07,09,07,14,0.00
2011,07,09,07,15,0.00
2011,07,09,07,16,0.00
2011,07,09,07,18,0.00
2011,07,09,07,19,0.00
2011,07,09,07,20,0.00
2011,07,09,07,21,0.00
2011,07,09,07,23,0.00
2011,07,09,07,24,0.00
2011,07,09,07,25,0.00
2011,07,09,07,26,0.00
2011,07,09,07,28,0.00
2011,07,09,07,29,0.00
2011,07,09,07,30,0.00
2011,07,09,07,31,0.00
2011,07,09,07,32,0.00
2011,07,09,07,33,0.00
2011,07,09,07,34,0.00
2011,07,09,07,35,0.00
2011,07,09,07,36,0.00
2011,07,09,07,37,0.00
2011,07,09,07,38,0.00
2011,07,09,07,39,1.60
2011,07,09,07,40,1.60
2011,07,09,07,41,1.60
2011,07,09,07,42,1.60
2011,07,09,07,43,1.60
2011,07,09,07,44,1.60
2011,07,09,07,46,1.60
2011,07,09,07,47,1.60
2011,07,09,07,48,1.60
2011,07,09,07,49,1.60
2011,07,09,07,51,1.60
2011,07,09,07,52,1.60
2011,07,09,07,53,1.60
2011,07,09,07,54,1.60
2011,07,09,07,55,1.60
2011,07,09,07,56,1.60
2011,07,09,07,57,1.60
2011,07,09,07,58,1.60
2011,07,09,07,59,1.60
2011,07,09,08,00,0.00
2011,07,09,08,01,0.00
2011,07,09,08,02,0.00
2011,07,09,08,03,0.00
2011,07,09,08,04,0.00
2011,07,09,08,05,0.00
2011,07,09,08,06,1.60
2011,07,09,08,07,1.60
2011,07,09,08,08,3.20
2011,07,09,08,09,3.20
2011,07,09,08,10,3.20
2011,07,09,08,11,3.20
2011,07,09,08,12,3.20
2011,07,09,08,13,3.20
2011,07,09,08,14,3.20
2011,07,09,08,15,3.20
2011,07,09,08,16,3.20
2011,07,09,08,17,3.20
2011,07,09,08,18,3.20
2011,07,09,08,19,3.20
2011,07,09,08,20,3.20
2011,07,09,08,21,3.20
2011,07,09,08,22,3.20
2011,07,09,08,23,3.20
2011,07,09,08,24,3.20
2011,07,09,08,25,3.20
2011,07,09,08,26,3.20
2011,07,09,08,27,3.20
2011,07,09,08,29,3.20
2011,07,09,08,30,0.00
2011,07,09,08,31,0.00
2011,07,09,08,32,1.60
2011,07,09,08,33,3.20
2011,07,09,08,35,3.20
2011,07,09,08,36,4.80
2011,07,09,08,37,4.80
2011,07,09,08,38,4.80
2011,07,09,08,40,4.80
2011,07,09,08,41,4.80
2011,07,09,08,42,4.80
2011,07,09,08,43,4.80
2011,07,09,08,45,4.80
2011,07,09,08,46,4.80
2011,07,09,08,47,4.80
2011,07,09,08,48,4.80
2011,07,09,08,50,4.80
2011,07,09,08,51,4.80
2011,07,09,08,52,6.40
2011,07,09,08,54,6.40
2011,07,09,08,55,6.40
2011,07,09,08,56,6.40
2011,07,09,08,57,6.40
2011,07,09,08,58,6.40
2011,07,09,08,59,6.40
2011,07,09,09,00,3.20
2011,07,09,09,01,3.20
2011,07,09,09,02,8.00
2011,07,09,09,04,8.00
2011,07,09,09,05,8.00
2011,07,09,09,06,9.70
2011,07,09,09,07,9.70
2011,07,09,09,08,9.70
2011,07,09,09,09,9.70
2011,07,09,09,11,9.70
2011,07,09,09,12,9.70
2011,07,09,09,13,9.70
2011,07,09,09,15,9.70
2011,07,09,09,16,9.70
2011,07,09,09,17,9.70
2011,07,09,09,18,9.70
2011,07,09,09,20,9.70
2011,07,09,09,21,9.70
2011,07,09,09,22,12.90
2011,07,09,09,23,12.90
2011,07,09,09,25,12.90
2011,07,09,09,26,12.90
2011,07,09,09,27,12.90
2011,07,09,09,28,12.90
2011,07,09,09,30,12.90
2011,07,09,09,31,12.90
2011,07,09,09,32,12.90
2011,07,09,09,33,12.90
2011,07,09,09,34,12.90
2011,07,09,09,36,14.50
2011,07,09,09,37,14.50
2011,07,09,09,38,14.50
2011,07,09,09,39,14.50
2011,07,09,09,41,14.50
2011,07,09,09,42,14.50
2011,07,09,09,43,14.50
2011,07,09,09,44,14.50
2011,07,09,09,45,14.50
2011,07,09,09,46,14.50
2011,07,09,09,47,14.50
2011,07,09,09,48,14.50
2011,07,09,09,49,14.50
2011,07,09,09,50,14.50
2011,07,09,09,52,14.50
2011,07,09,09,53,14.50
2011,07,09,09,54,16.10
2011,07,09,09,55,16.10
2011,07,09,09,57,16.10
2011,07,09,09,58,16.10
2011,07,09,09,59,16.10
2011,07,09,10,00,8.00
2011,07,09,10,02,9.70
2011,07,09,10,03,12.90
2011,07,09,10,04,14.50
2011,07,09,10,06,14.50
2011,07,09,10,07,14.50
2011,07,09,10,08,14.50
2011,07,09,10,09,14.50
2011,07,09,10,11,14.50
2011,07,09,10,12,14.50
2011,07,09,10,13,14.50
2011,07,09,10,14,14.50
2011,07,09,10,16,14.50
2011,07,09,10,17,16.10
2011,07,09,10,18,16.10
2011,07,09,10,19,16.10
2011,07,09,10,20,16.10
2011,07,09,10,21,16.10
2011,07,09,10,22,16.10
2011,07,09,10,23,16.10
2011,07,09,10,24,16.10
2011,07,09,10,25,16.10
2011,07,09,10,26,16.10
2011,07,09,10,27,16.10
2011,07,09,10,28,16.10
2011,07,09,10,29,16.10
2011,07,09,10,30,9.70
2011,07,09,10,32,11.30
2011,07,09,10,33,14.50
2011,07,09,10,34,14.50
2011,07,09,10,36,14.50
2011,07,09,10,37,14.50
2011,07,09,10,38,14.50
2011,07,09,10,39,14.50
2011,07,09,10,41,14.50
2011,07,09,10,42,14.50
2011,07,09,10,43,14.50
2011,07,09,10,44,14.50
2011,07,09,10,46,14.50
2011,07,09,10,47,14.50
2011,07,09,10,48,14.50
2011,07,09,10,49,14.50
2011,07,09,10,51,14.50
2011,07,09,10,52,14.50
2011,07,09,10,53,14.50
2011,07,09,10,54,14.50
2011,07,09,10,56,14.50
2011,07,09,10,57,14.50
2011,07,09,10,58,14.50
2011,07,09,11,00,14.50
2011,07,09,11,01,12.90
2011,07,09,11,02,12.90
2011,07,09,11,03,12.90
2011,07,09,11,05,12.90
2011,07,09,11,06,12.90
2011,07,09,11,07,12.90
2011,07,09,11,08,12.90
2011,07,09,11,09,12.90
2011,07,09,11,10,12.90
2011,07,09,11,11,12.90
2011,07,09,11,12,12.90
2011,07,09,11,13,12.90
2011,07,09,11,14,12.90
2011,07,09,11,16,12.90
2011,07,09,11,17,12.90
2011,07,09,11,18,12.90
2011,07,09,11,19,12.90
2011,07,09,11,20,12.90
2011,07,09,11,22,12.90
2011,07,09,11,23,12.90
2011,07,09,11,24,12.90
2011,07,09,11,25,12.90
2011,07,09,11,26,12.90
2011,07,09,11,27,16.10
2011,07,09,11,28,16.10
2011,07,09,11,29,16.10
2011,07,09,11,30,4.80
2011,07,09,11,31,8.00
2011,07,09,11,32,8.00
2011,07,09,11,33,8.00
2011,07,09,11,35,9.70
2011,07,09,11,36,9.70
2011,07,09,11,37,9.70
2011,07,09,11,38,12.90
2011,07,09,11,39,14.50
2011,07,09,11,41,14.50
2011,07,09,11,42,14.50
2011,07,09,11,43,14.50
2011,07,09,11,45,14.50
2011,07,09,11,46,14.50
2011,07,09,11,47,14.50
2011,07,09,11,48,14.50
2011,07,09,11,50,14.50
2011,07,09,11,51,14.50
2011,07,09,11,52,14.50
2011,07,09,11,53,14.50
2011,07,09,11,55,14.50
2011,07,09,11,56,14.50
2011,07,09,11,57,14.50
2011,07,09,11,58,14.50
2011,07,09,12,00,14.50
2011,07,09,12,01,6.40
2011,07,09,12,02,6.40
2011,07,09,12,03,6.40
2011,07,09,12,05,8.00
2011,07,09,12,06,9.70
2011,07,09,12,07,9.70
2011,07,09,12,08,9.70
2011,07,09,12,10,9.70
2011,07,09,12,11,9.70
2011,07,09,12,12,11.30
2011,07,09,12,13,11.30
2011,07,09,12,14,11.30
2011,07,09,12,16,11.30
2011,07,09,12,17,11.30
2011,07,09,12,18,11.30
2011,07,09,12,19,11.30
2011,07,09,12,21,11.30
2011,07,09,12,22,11.30
2011,07,09,12,23,11.30
2011,07,09,12,24,11.30
2011,07,09,12,25,11.30
2011,07,09,12,26,12.90
2011,07,09,12,27,12.90
2011,07,09,12,29,12.90
2011,07,09,12,30,8.00
2011,07,09,12,31,12.90
2011,07,09,12,33,12.90
2011,07,09,12,34,12.90
2011,07,09,12,35,12.90
2011,07,09,12,36,12.90
2011,07,09,12,38,12.90
2011,07,09,12,39,12.90
2011,07,09,12,40,12.90
2011,07,09,12,41,12.90
2011,07,09,12,42,12.90
2011,07,09,12,43,12.90
2011,07,09,12,44,12.90
2011,07,09,12,45,12.90
2011,07,09,12,46,12.90
2011,07,09,12,47,12.90
2011,07,09,12,48,12.90
2011,07,09,12,50,12.90
2011,07,09,12,51,12.90
2011,07,09,12,52,12.90
2011,07,09,12,53,12.90
2011,07,09,12,54,12.90
2011,07,09,12,55,12.90
2011,07,09,12,56,12.90
2011,07,09,12,57,14.50
2011,07,09,12,58,14.50
2011,07,09,13,00,14.50
2011,07,09,13,01,9.70
2011,07,09,13,02,11.30
2011,07,09,13,03,11.30
2011,07,09,13,05,11.30
2011,07,09,13,06,11.30
2011,07,09,13,07,12.90
2011,07,09,13,08,12.90
2011,07,09,13,10,16.10
2011,07,09,13,11,16.10
2011,07,09,13,12,16.10
2011,07,09,13,13,16.10
2011,07,09,13,14,16.10
2011,07,09,13,16,16.10
2011,07,09,13,17,16.10
2011,07,09,13,18,16.10
2011,07,09,13,19,16.10
2011,07,09,13,21,16.10
2011,07,09,13,22,16.10
2011,07,09,13,23,16.10
2011,07,09,13,24,16.10
2011,07,09,13,26,16.10
2011,07,09,13,27,16.10
2011,07,09,13,28,16.10
2011,07,09,13,29,16.10
2011,07,09,13,31,11.30
2011,07,09,13,32,12.90
2011,07,09,13,33,12.90
2011,07,09,13,34,12.90
2011,07,09,13,36,12.90
2011,07,09,13,37,12.90
2011,07,09,13,38,14.50
2011,07,09,13,39,14.50
2011,07,09,13,40,14.50
2011,07,09,13,42,14.50
2011,07,09,13,43,14.50
2011,07,09,13,44,14.50
2011,07,09,13,45,14.50
2011,07,09,13,47,14.50
2011,07,09,13,48,14.50
2011,07,09,13,49,14.50
2011,07,09,13,50,14.50
2011,07,09,13,51,14.50
2011,07,09,13,53,14.50
2011,07,09,13,54,14.50
2011,07,09,13,55,14.50
2011,07,09,13,56,14.50
2011,07,09,13,57,14.50
2011,07,09,13,58,14.50
2011,07,09,13,59,14.50
2011,07,09,14,00,19.30
2011,07,09,14,01,19.30
2011,07,09,14,02,19.30
2011,07,09,14,03,19.30
2011,07,09,14,04,19.30
2011,07,09,14,06,19.30
2011,07,09,14,07,19.30
2011,07,09,14,08,19.30
2011,07,09,14,09,19.30
2011,07,09,14,11,19.30
2011,07,09,14,12,19.30
2011,07,09,14,13,19.30
2011,07,09,14,14,19.30
2011,07,09,14,15,19.30
2011,07,09,14,16,19.30
2011,07,09,14,17,19.30
2011,07,09,14,18,19.30
2011,07,09,14,19,19.30
2011,07,09,14,20,19.30
2011,07,09,14,21,19.30
2011,07,09,14,22,19.30
2011,07,09,14,23,19.30
2011,07,09,14,24,19.30
2011,07,09,14,26,19.30
2011,07,09,14,27,19.30
2011,07,09,14,28,19.30
2011,07,09,14,30,19.30
2011,07,09,14,31,9.70
2011,07,09,14,32,12.90
2011,07,09,14,33,14.50
2011,07,09,14,34,14.50
2011,07,09,14,36,14.50
2011,07,09,14,37,14.50
2011,07,09,14,38,14.50
2011,07,09,14,39,14.50
2011,07,09,14,41,14.50
2011,07,09,14,42,14.50
2011,07,09,14,43,14.50
2011,07,09,14,44,14.50
2011,07,09,14,45,14.50
2011,07,09,14,46,14.50
2011,07,09,14,47,14.50
2011,07,09,14,48,14.50
2011,07,09,14,50,14.50
2011,07,09,14,51,14.50
2011,07,09,14,52,14.50
2011,07,09,14,53,14.50
2011,07,09,14,54,14.50
2011,07,09,14,55,14.50
2011,07,09,14,56,14.50
2011,07,09,14,57,14.50
2011,07,09,14,58,14.50
2011,07,09,14,59,14.50
2011,07,09,15,00,6.40
2011,07,09,15,01,6.40
2011,07,09,15,02,8.00
2011,07,09,15,03,9.70
2011,07,09,15,04,9.70
2011,07,09,15,05,11.30
2011,07,09,15,06,14.50
2011,07,09,15,07,14.50
2011,07,09,15,09,14.50
2011,07,09,15,10,14.50
2011,07,09,15,11,14.50
2011,07,09,15,12,14.50
2011,07,09,15,13,14.50
2011,07,09,15,14,14.50
2011,07,09,15,15,14.50
2011,07,09,15,16,14.50
2011,07,09,15,17,14.50
2011,07,09,15,18,14.50
2011,07,09,15,19,14.50
2011,07,09,15,20,14.50
2011,07,09,15,21,14.50
2011,07,09,15,22,14.50
2011,07,09,15,23,14.50
2011,07,09,15,24,14.50
2011,07,09,15,25,14.50
2011,07,09,15,27,14.50
2011,07,09,15,28,14.50
2011,07,09,15,29,14.50
2011,07,09,15,30,14.50
2011,07,09,15,31,14.50
2011,07,09,15,32,14.50
2011,07,09,15,33,14.50
2011,07,09,15,34,14.50
2011,07,09,15,36,14.50
2011,07,09,15,37,16.10
2011,07,09,15,38,16.10
2011,07,09,15,39,16.10
2011,07,09,15,40,16.10
2011,07,09,15,41,16.10
2011,07,09,15,42,16.10
2011,07,09,15,43,16.10
2011,07,09,15,44,16.10
2011,07,09,15,45,16.10
2011,07,09,15,46,16.10
2011,07,09,15,47,16.10
2011,07,09,15,48,16.10
2011,07,09,15,49,16.10
2011,07,09,15,50,16.10
2011,07,09,15,51,16.10
2011,07,09,15,52,16.10
2011,07,09,15,53,16.10
2011,07,09,15,55,16.10
2011,07,09,15,56,16.10
2011,07,09,15,57,16.10
2011,07,09,15,58,16.10
2011,07,09,15,59,16.10
2011,07,09,16,00,14.50
2011,07,09,16,01,14.50
2011,07,09,16,02,14.50
2011,07,09,16,03,14.50
2011,07,09,16,04,14.50
2011,07,09,16,05,14.50
2011,07,09,16,06,14.50
2011,07,09,16,07,16.10
2011,07,09,16,08,16.10
2011,07,09,16,10,16.10
2011,07,09,16,11,16.10
2011,07,09,16,12,16.10
2011,07,09,16,13,16.10
2011,07,09,16,14,16.10
2011,07,09,16,15,16.10
2011,07,09,16,16,16.10
2011,07,09,16,17,16.10
2011,07,09,16,18,16.10
2011,07,09,16,19,16.10
2011,07,09,16,20,16.10
2011,07,09,16,21,16.10
2011,07,09,16,22,16.10
2011,07,09,16,23,16.10
2011,07,09,16,25,16.10
2011,07,09,16,26,16.10
2011,07,09,16,27,16.10
2011,07,09,16,29,16.10
2011,07,09,16,30,9.70
2011,07,09,16,31,11.30
2011,07,09,16,32,11.30
2011,07,09,16,33,11.30
2011,07,09,16,34,11.30
2011,07,09,16,35,11.30
2011,07,09,16,36,11.30
2011,07,09,16,37,11.30
2011,07,09,16,38,11.30
2011,07,09,16,39,11.30
2011,07,09,16,40,11.30
2011,07,09,16,41,14.50
2011,07,09,16,42,17.70
2011,07,09,16,44,17.70
2011,07,09,16,45,17.70
2011,07,09,16,46,17.70
2011,07,09,16,47,17.70
2011,07,09,16,48,17.70
2011,07,09,16,49,17.70
2011,07,09,16,50,17.70
2011,07,09,16,51,17.70
2011,07,09,16,52,17.70
2011,07,09,16,54,17.70
2011,07,09,16,55,17.70
2011,07,09,16,56,17.70
2011,07,09,16,58,17.70
2011,07,09,16,59,17.70
2011,07,09,17,00,12.90
2011,07,09,17,01,16.10
2011,07,09,17,02,16.10
2011,07,09,17,03,16.10
2011,07,09,17,04,16.10
2011,07,09,17,05,16.10
2011,07,09,17,06,16.10
2011,07,09,17,07,16.10
2011,07,09,17,08,16.10
2011,07,09,17,09,16.10
2011,07,09,17,10,16.10
2011,07,09,17,11,16.10
2011,07,09,17,12,16.10
2011,07,09,17,13,16.10
2011,07,09,17,14,16.10
2011,07,09,17,15,16.10
2011,07,09,17,16,16.10
2011,07,09,17,17,16.10
2011,07,09,17,18,16.10
2011,07,09,17,19,16.10
2011,07,09,17,20,16.10
2011,07,09,17,22,16.10
2011,07,09,17,23,16.10
2011,07,09,17,24,16.10
2011,07,09,17,25,16.10
2011,07,09,17,27,16.10
2011,07,09,17,28,16.10
2011,07,09,17,29,16.10
2011,07,09,17,30,8.00
2011,07,09,17,31,8.00
2011,07,09,17,33,11.30
2011,07,09,17,34,14.50
2011,07,09,17,35,14.50
2011,07,09,17,36,14.50
2011,07,09,17,38,14.50
2011,07,09,17,39,14.50
2011,07,09,17,40,14.50
2011,07,09,17,41,14.50
2011,07,09,17,42,14.50
2011,07,09,17,43,14.50
2011,07,09,17,44,14.50
2011,07,09,17,45,14.50
2011,07,09,17,46,17.70
2011,07,09,17,48,17.70
2011,07,09,17,49,17.70
2011,07,09,17,50,17.70
2011,07,09,17,51,17.70
2011,07,09,17,52,17.70
2011,07,09,17,53,17.70
2011,07,09,17,54,17.70
2011,07,09,17,55,17.70
2011,07,09,17,56,17.70
2011,07,09,17,57,17.70
2011,07,09,17,58,17.70
2011,07,09,17,59,17.70
2011,07,09,18,01,12.90
2011,07,09,18,02,12.90
2011,07,09,18,03,16.10
2011,07,09,18,04,16.10
2011,07,09,18,06,16.10
2011,07,09,18,07,16.10
2011,07,09,18,08,16.10
2011,07,09,18,09,16.10
2011,07,09,18,10,16.10
2011,07,09,18,11,16.10
2011,07,09,18,12,16.10
2011,07,09,18,13,16.10
2011,07,09,18,14,16.10
2011,07,09,18,16,16.10
2011,07,09,18,17,16.10
2011,07,09,18,18,16.10
2011,07,09,18,19,16.10
2011,07,09,18,21,16.10
2011,07,09,18,22,16.10
2011,07,09,18,23,16.10
2011,07,09,18,25,16.10
2011,07,09,18,26,16.10
2011,07,09,18,27,16.10
2011,07,09,18,28,16.10
2011,07,09,18,30,16.10
2011,07,09,18,31,8.00
2011,07,09,18,32,9.70
2011,07,09,18,33,9.70
2011,07,09,18,34,9.70
2011,07,09,18,35,9.70
2011,07,09,18,36,11.30
2011,07,09,18,37,11.30
2011,07,09,18,38,11.30
2011,07,09,18,40,11.30
2011,07,09,18,41,11.30
2011,07,09,18,42,12.90
2011,07,09,18,44,12.90
2011,07,09,18,45,12.90
2011,07,09,18,46,12.90
2011,07,09,18,47,12.90
2011,07,09,18,48,12.90
2011,07,09,18,49,12.90
2011,07,09,18,50,12.90
2011,07,09,18,51,16.10
2011,07,09,18,52,16.10
2011,07,09,18,54,16.10
2011,07,09,18,55,16.10
2011,07,09,18,56,16.10
2011,07,09,18,57,16.10
2011,07,09,18,58,16.10
2011,07,09,18,59,16.10
2011,07,09,19,00,4.80
2011,07,09,19,01,6.40
2011,07,09,19,02,8.00
2011,07,09,19,03,8.00
2011,07,09,19,04,8.00
2011,07,09,19,05,8.00
2011,07,09,19,06,8.00
2011,07,09,19,07,12.90
2011,07,09,19,08,16.10
2011,07,09,19,09,16.10
2011,07,09,19,10,16.10
2011,07,09,19,11,16.10
2011,07,09,19,12,16.10
2011,07,09,19,13,16.10
2011,07,09,19,14,16.10
2011,07,09,19,15,16.10
2011,07,09,19,16,16.10
2011,07,09,19,17,16.10
2011,07,09,19,19,16.10
2011,07,09,19,20,16.10
2011,07,09,19,21,16.10
2011,07,09,19,22,16.10
2011,07,09,19,23,16.10
2011,07,09,19,24,16.10
2011,07,09,19,25,16.10
2011,07,09,19,26,16.10
2011,07,09,19,27,16.10
2011,07,09,19,29,16.10
2011,07,09,19,30,11.30
2011,07,09,19,31,11.30
2011,07,09,19,32,11.30
2011,07,09,19,34,11.30
2011,07,09,19,35,12.90
2011,07,09,19,36,12.90
2011,07,09,19,38,12.90
2011,07,09,19,39,14.50
2011,07,09,19,40,14.50
2011,07,09,19,42,14.50
2011,07,09,19,43,14.50
2011,07,09,19,44,14.50
2011,07,09,19,45,14.50
2011,07,09,19,46,14.50
2011,07,09,19,47,14.50
2011,07,09,19,48,14.50
2011,07,09,19,49,16.10
2011,07,09,19,50,16.10
2011,07,09,19,51,16.10
2011,07,09,19,52,16.10
2011,07,09,19,53,16.10
2011,07,09,19,54,16.10
2011,07,09,19,55,16.10
2011,07,09,19,56,16.10
2011,07,09,19,57,16.10
2011,07,09,19,58,16.10
2011,07,09,19,59,16.10
2011,07,09,20,00,8.00
2011,07,09,20,01,8.00
2011,07,09,20,02,8.00
2011,07,09,20,03,12.90
2011,07,09,20,05,12.90
2011,07,09,20,06,12.90
2011,07,09,20,07,12.90
2011,07,09,20,08,12.90
2011,07,09,20,09,12.90
2011,07,09,20,10,12.90
2011,07,09,20,12,12.90
2011,07,09,20,13,12.90
2011,07,09,20,14,12.90
2011,07,09,20,15,12.90
2011,07,09,20,17,16.10
2011,07,09,20,18,16.10
2011,07,09,20,19,16.10
2011,07,09,20,20,16.10